Time,TemperatureF,DewpointF,PressureIn,WindDirection,WindDirectionDegrees,WindSpeedMPH,WindSpeedGustMPH,Humidity,HourlyPrecipIn,Conditions,Clouds,dailyrainin,SoftwareType,DateUTC
2013-01-27 00:03:00,23.0,18.0,30.47,East,90,0.0,-999.0,81,-99.99,,,-99.99,,2013-01-27 05:03:00,
2013-01-27 00:12:00,23.0,18.0,30.47,East,90,0.0,-999.0,81,-99.99,,,-99.99,,2013-01-27 05:12:00,
2013-01-27 00:22:00,23.0,18.0,30.48,East,90,0.0,-999.0,81,-99.99,,,-99.99,,2013-01-27 05:22:00,
2013-01-27 00:32:00,23.0,18.0,30.48,East,90,0.0,-999.0,81,-99.99,,,-99.99,,2013-01-27 05:32:00,
2013-01-27 00:41:00,23.0,18.0,30.48,East,90,0.0,-999.0,81,-99.99,,,-99.99,,2013-01-27 05:41:00,
2013-01-27 00:52:00,23.0,18.0,30.47,East,90,0.0,-999.0,82,-99.99,,,-99.99,,2013-01-27 05:52:00,
2013-01-27 01:01:00,23.0,18.0,30.47,East,90,0.0,-999.0,82,-99.99,,,-99.99,,2013-01-27 06:01:00,
2013-01-27 01:11:00,23.0,18.0,30.47,East,90,0.0,-999.0,82,-99.99,,,-99.99,,2013-01-27 06:11:00,
2013-01-27 01:21:00,23.0,18.0,30.45,East,90,0.0,-999.0,82,-99.99,,,-99.99,,2013-01-27 06:21:00,
2013-01-27 01:32:00,23.0,18.0,30.45,East,90,0.0,-999.0,82,-99.99,,,-99.99,,2013-01-27 06:32:00,
2013-01-27 01:42:00,23.0,18.0,30.45,East,90,0.0,-999.0,82,-99.99,,,-99.99,,2013-01-27 06:42:00,
2013-01-27 01:52:00,23.0,19.0,30.44,East,90,0.0,-999.0,83,-99.99,,,-99.99,,2013-01-27 06:52:00,
2013-01-27 02:01:00,23.0,19.0,30.44,East,90,0.0,-999.0,83,-99.99,,,-99.99,,2013-01-27 07:01:00,
2013-01-27 02:13:00,23.0,19.0,30.44,East,90,0.0,-999.0,83,-99.99,,,-99.99,,2013-01-27 07:13:00,
2013-01-27 02:21:00,23.0,18.0,30.44,East,90,0.0,-999.0,82,-99.99,,,-99.99,,2013-01-27 07:21:00,
2013-01-27 02:31:00,22.0,17.0,30.44,East,90,0.0,-999.0,82,-99.99,,,-99.99,,2013-01-27 07:31:00,
2013-01-27 02:41:00,22.0,17.0,30.44,East,90,0.0,-999.0,82,-99.99,,,-99.99,,2013-01-27 07:41:00,
2013-01-27 02:52:00,22.0,17.0,30.45,WSW,258,0.0,-999.0,82,-99.99,,,-99.99,,2013-01-27 07:52:00,
2013-01-27 03:01:00,22.0,17.0,30.45,West,259,0.0,-999.0,82,-99.99,,,-99.99,,2013-01-27 08:01:00,
2013-01-27 03:11:00,22.0,17.0,30.45,West,259,0.0,-999.0,82,-99.99,,,-99.99,,2013-01-27 08:11:00,
2013-01-27 03:22:00,23.0,18.0,30.46,West,259,0.0,-999.0,82,-99.99,,,-99.99,,2013-01-27 08:22:00,
2013-01-27 03:31:00,23.0,18.0,30.46,WNW,285,0.0,-999.0,81,-99.99,,,-99.99,,2013-01-27 08:31:00,
2013-01-27 03:42:00,23.0,18.0,30.46,WNW,285,0.0,-999.0,81,-99.99,,,-99.99,,2013-01-27 08:42:00,
2013-01-27 03:52:00,24.0,18.0,30.45,West,261,0.0,-999.0,78,-99.99,,,-99.99,,2013-01-27 08:52:00,
2013-01-27 04:02:00,24.0,18.0,30.45,West,281,0.0,-999.0,76,-99.99,,,-99.99,,2013-01-27 09:02:00,
2013-01-27 04:11:00,24.0,18.0,30.45,West,281,0.0,-999.0,76,-99.99,,,-99.99,,2013-01-27 09:11:00,
2013-01-27 04:21:00,24.0,17.0,30.45,WSW,252,0.0,-999.0,75,-99.99,,,-99.99,,2013-01-27 09:21:00,
2013-01-27 04:32:00,24.0,17.0,30.45,WSW,256,0.0,-999.0,74,-99.99,,,-99.99,,2013-01-27 09:32:00,
2013-01-27 04:41:00,24.0,17.0,30.45,WSW,256,0.0,-999.0,74,-99.99,,,-99.99,,2013-01-27 09:41:00,
2013-01-27 04:52:00,24.0,17.0,30.45,WSW,254,0.0,-999.0,73,-99.99,,,-99.99,,2013-01-27 09:52:00,
2013-01-27 05:01:00,24.0,17.0,30.45,WSW,254,0.0,-999.0,73,-99.99,,,-99.99,,2013-01-27 10:01:00,
2013-01-27 05:11:00,24.0,17.0,30.45,WNW,295,0.0,-999.0,73,-99.99,,,-99.99,,2013-01-27 10:11:00,
2013-01-27 05:21:00,24.0,17.0,30.45,WNW,295,0.0,-999.0,73,-99.99,,,-99.99,,2013-01-27 10:21:00,
2013-01-27 05:31:00,24.0,17.0,30.45,WNW,303,0.0,-999.0,73,-99.99,,,-99.99,,2013-01-27 10:31:00,
2013-01-27 05:42:00,24.0,17.0,30.45,WNW,303,0.0,-999.0,73,-99.99,,,-99.99,,2013-01-27 10:42:00,
2013-01-27 05:52:00,24.0,17.0,30.45,WSW,256,0.0,-999.0,74,-99.99,,,-99.99,,2013-01-27 10:52:00,
2013-01-27 06:01:00,24.0,17.0,30.45,WSW,256,0.0,-999.0,74,-99.99,,,-99.99,,2013-01-27 11:01:00,
2013-01-27 06:11:00,24.0,17.0,30.44,WNW,302,0.0,-999.0,73,-99.99,,,-99.99,,2013-01-27 11:11:00,
2013-01-27 06:21:00,24.0,17.0,30.44,WNW,302,0.0,-999.0,73,-99.99,,,-99.99,,2013-01-27 11:21:00,
2013-01-27 06:32:00,24.0,17.0,30.44,SW,215,0.0,-999.0,73,-99.99,,,-99.99,,2013-01-27 11:32:00,
2013-01-27 06:42:00,24.0,17.0,30.44,SW,215,0.0,-999.0,73,-99.99,,,-99.99,,2013-01-27 11:42:00,
2013-01-27 06:52:00,23.0,15.0,30.43,West,264,0.0,-999.0,72,-99.99,,,-99.99,,2013-01-27 11:52:00,
2013-01-27 07:02:00,23.0,15.0,30.43,WSW,242,0.0,-999.0,72,-99.99,,,-99.99,,2013-01-27 12:02:00,
2013-01-27 07:11:00,23.0,15.0,30.43,WSW,242,0.0,-999.0,72,-99.99,,,-99.99,,2013-01-27 12:11:00,
2013-01-27 07:21:00,22.0,15.0,30.44,West,265,0.0,-999.0,73,-99.99,,,-99.99,,2013-01-27 12:21:00,
2013-01-27 07:32:00,22.0,15.0,30.44,North,3,1.0,-999.0,73,-99.99,,,-99.99,,2013-01-27 12:32:00,
2013-01-27 07:42:00,22.0,15.0,30.44,North,3,1.0,-999.0,73,-99.99,,,-99.99,,2013-01-27 12:42:00,
2013-01-27 07:52:00,23.0,16.0,30.43,WSW,241,2.0,-999.0,73,-99.99,,,-99.99,,2013-01-27 12:52:00,
2013-01-27 08:02:00,23.0,16.0,30.43,WSW,252,1.0,-999.0,73,-99.99,,,-99.99,,2013-01-27 13:02:00,
2013-01-27 08:11:00,23.0,16.0,30.43,WSW,252,1.0,-999.0,73,-99.99,,,-99.99,,2013-01-27 13:11:00,
2013-01-27 08:22:00,23.0,16.0,30.43,West,269,1.0,-999.0,74,-99.99,,,-99.99,,2013-01-27 13:22:00,
2013-01-27 08:32:00,23.0,16.0,30.43,South,177,1.0,-999.0,74,-99.99,,,-99.99,,2013-01-27 13:32:00,
2013-01-27 08:42:00,23.0,16.0,30.43,South,177,1.0,-999.0,74,-99.99,,,-99.99,,2013-01-27 13:42:00,
2013-01-27 08:52:00,23.0,16.0,30.44,NNW,347,1.0,-999.0,74,-99.99,,,-99.99,,2013-01-27 13:52:00,
2013-01-27 09:02:00,24.0,17.0,30.44,ESE,106,2.0,-999.0,74,-99.99,,,-99.99,,2013-01-27 14:02:00,
2013-01-27 09:11:00,24.0,17.0,30.44,ESE,106,2.0,-999.0,74,-99.99,,,-99.99,,2013-01-27 14:11:00,
2013-01-27 09:22:00,24.0,17.0,30.44,NW,307,2.0,-999.0,73,-99.99,,,-99.99,,2013-01-27 14:22:00,
2013-01-27 09:32:00,24.0,17.0,30.44,NNW,336,1.0,-999.0,73,-99.99,,,-99.99,,2013-01-27 14:32:00,
2013-01-27 09:42:00,24.0,17.0,30.44,NNW,336,1.0,-999.0,73,-99.99,,,-99.99,,2013-01-27 14:42:00,
2013-01-27 09:53:00,25.0,18.0,30.43,NNW,347,2.0,-999.0,73,-99.99,,,-99.99,,2013-01-27 14:53:00,
2013-01-27 10:02:00,25.0,18.0,30.43,NNW,346,1.0,-999.0,73,-99.99,,,-99.99,,2013-01-27 15:02:00,
2013-01-27 10:11:00,25.0,18.0,30.43,NNW,346,1.0,-999.0,73,-99.99,,,-99.99,,2013-01-27 15:11:00,
2013-01-27 10:22:00,25.0,17.0,30.43,SW,223,1.0,-999.0,72,-99.99,,,-99.99,,2013-01-27 15:22:00,
2013-01-27 10:32:00,25.0,17.0,30.43,West,278,1.0,-999.0,72,-99.99,,,-99.99,,2013-01-27 15:32:00,
2013-01-27 10:42:00,25.0,17.0,30.43,West,278,1.0,-999.0,72,-99.99,,,-99.99,,2013-01-27 15:42:00,
2013-01-27 10:53:00,26.0,18.0,30.45,NW,324,1.0,-999.0,72,-99.99,,,-99.99,,2013-01-27 15:53:00,
2013-01-27 11:02:00,26.0,18.0,30.45,West,261,1.0,-999.0,71,-99.99,,,-99.99,,2013-01-27 16:02:00,
2013-01-27 11:11:00,26.0,18.0,30.45,West,261,1.0,-999.0,71,-99.99,,,-99.99,,2013-01-27 16:11:00,
2013-01-27 11:21:00,26.0,18.0,30.43,NW,308,1.0,-999.0,71,-99.99,,,-99.99,,2013-01-27 16:21:00,
2013-01-27 11:32:00,26.0,18.0,30.43,West,276,2.0,-999.0,70,-99.99,,,-99.99,,2013-01-27 16:32:00,
2013-01-27 11:42:00,26.0,18.0,30.43,West,276,2.0,-999.0,70,-99.99,,,-99.99,,2013-01-27 16:42:00,
2013-01-27 11:53:00,28.0,19.0,30.44,West,277,1.0,-999.0,69,-99.99,,,-99.99,,2013-01-27 16:53:00,
2013-01-27 12:01:00,28.0,19.0,30.44,NW,319,2.0,-999.0,69,-99.99,,,-99.99,,2013-01-27 17:01:00,
2013-01-27 12:12:00,28.0,19.0,30.44,NW,319,2.0,-999.0,69,-99.99,,,-99.99,,2013-01-27 17:12:00,
2013-01-27 12:22:00,28.0,19.0,30.43,WSW,246,2.0,-999.0,68,-99.99,,,-99.99,,2013-01-27 17:22:00,
2013-01-27 12:32:00,29.0,20.0,30.44,NNE,23,0.0,-999.0,68,-99.99,,,-99.99,,2013-01-27 17:32:00,
2013-01-27 12:42:00,29.0,20.0,30.44,NNE,23,0.0,-999.0,68,-99.99,,,-99.99,,2013-01-27 17:42:00,
2013-01-27 12:52:00,29.0,20.0,30.42,WNW,300,1.0,-999.0,68,-99.99,,,-99.99,,2013-01-27 17:52:00,
2013-01-27 13:02:00,29.0,19.0,30.42,West,260,1.0,-999.0,67,-99.99,,,-99.99,,2013-01-27 18:02:00,
2013-01-27 13:11:00,29.0,19.0,30.42,West,260,1.0,-999.0,67,-99.99,,,-99.99,,2013-01-27 18:11:00,
2013-01-27 13:22:00,29.0,19.0,30.39,NNE,26,1.0,-999.0,67,-99.99,,,-99.99,,2013-01-27 18:22:00,
2013-01-27 13:32:00,29.0,20.0,30.39,WSW,256,1.0,-999.0,68,-99.99,,,-99.99,,2013-01-27 18:32:00,
2013-01-27 13:42:00,29.0,20.0,30.39,WSW,256,1.0,-999.0,68,-99.99,,,-99.99,,2013-01-27 18:42:00,
2013-01-27 13:52:00,30.0,20.0,30.35,NW,321,2.0,-999.0,67,-99.99,,,-99.99,,2013-01-27 18:52:00,
2013-01-27 14:02:00,30.0,20.0,30.35,NNW,333,1.0,-999.0,66,-99.99,,,-99.99,,2013-01-27 19:02:00,
2013-01-27 14:11:00,30.0,20.0,30.35,NNW,333,1.0,-999.0,66,-99.99,,,-99.99,,2013-01-27 19:11:00,
2013-01-27 14:22:00,30.0,20.0,30.31,West,270,2.0,-999.0,67,-99.99,,,-99.99,,2013-01-27 19:22:00,
2013-01-27 14:32:00,30.0,20.0,30.31,WNW,294,2.0,-999.0,67,-99.99,,,-99.99,,2013-01-27 19:32:00,
2013-01-27 14:42:00,30.0,20.0,30.31,WNW,294,2.0,-999.0,67,-99.99,,,-99.99,,2013-01-27 19:42:00,
2013-01-27 14:52:00,30.0,20.0,30.30,ESE,107,2.0,-999.0,67,-99.99,,,-99.99,,2013-01-27 19:52:00,
2013-01-27 15:02:00,30.0,21.0,30.30,NW,314,1.0,-999.0,68,-99.99,,,-99.99,,2013-01-27 20:02:00,
2013-01-27 15:11:00,30.0,21.0,30.30,NW,314,1.0,-999.0,68,-99.99,,,-99.99,,2013-01-27 20:11:00,
2013-01-27 15:22:00,30.0,21.0,30.29,NW,307,2.0,-999.0,68,-99.99,,,-99.99,,2013-01-27 20:22:00,
2013-01-27 15:32:00,30.0,21.0,30.29,NNW,340,1.0,-999.0,68,-99.99,,,-99.99,,2013-01-27 20:32:00,
2013-01-27 15:42:00,30.0,21.0,30.29,NNW,340,1.0,-999.0,68,-99.99,,,-99.99,,2013-01-27 20:42:00,
2013-01-27 15:52:00,30.0,21.0,30.31,NW,323,2.0,-999.0,68,-99.99,,,-99.99,,2013-01-27 20:52:00,
2013-01-27 16:02:00,30.0,21.0,30.31,North,354,1.0,-999.0,68,-99.99,,,-99.99,,2013-01-27 21:02:00,
2013-01-27 16:12:00,30.0,21.0,30.31,North,354,1.0,-999.0,68,-99.99,,,-99.99,,2013-01-27 21:12:00,
2013-01-27 16:22:00,31.0,22.0,30.29,West,281,1.0,-999.0,69,-99.99,,,-99.99,,2013-01-27 21:22:00,
2013-01-27 16:32:00,31.0,22.0,30.29,WNW,288,2.0,-999.0,69,-99.99,,,-99.99,,2013-01-27 21:32:00,
2013-01-27 16:42:00,31.0,22.0,30.29,WNW,288,2.0,-999.0,69,-99.99,,,-99.99,,2013-01-27 21:42:00,
2013-01-27 16:52:00,31.0,22.0,30.24,NNW,333,2.0,-999.0,69,-99.99,,,-99.99,,2013-01-27 21:52:00,
2013-01-27 17:02:00,31.0,22.0,30.24,West,266,2.0,-999.0,68,-99.99,,,-99.99,,2013-01-27 22:02:00,
2013-01-27 17:11:00,31.0,22.0,30.24,West,266,2.0,-999.0,68,-99.99,,,-99.99,,2013-01-27 22:11:00,
2013-01-27 17:22:00,31.0,22.0,30.26,SW,221,1.0,-999.0,68,-99.99,,,-99.99,,2013-01-27 22:22:00,
2013-01-27 17:32:00,31.0,22.0,30.26,NNW,333,1.0,-999.0,68,-99.99,,,-99.99,,2013-01-27 22:32:00,
2013-01-27 17:42:00,31.0,22.0,30.26,NNW,333,1.0,-999.0,68,-99.99,,,-99.99,,2013-01-27 22:42:00,
2013-01-27 17:52:00,31.0,22.0,30.26,WNW,284,1.0,-999.0,68,-99.99,,,-99.99,,2013-01-27 22:52:00,
2013-01-27 18:02:00,31.0,22.0,30.26,NW,306,1.0,-999.0,69,-99.99,,,-99.99,,2013-01-27 23:02:00,
2013-01-27 18:12:00,31.0,22.0,30.26,NW,306,1.0,-999.0,69,-99.99,,,-99.99,,2013-01-27 23:12:00,
2013-01-27 18:21:00,31.0,23.0,30.27,NW,311,1.0,-999.0,72,-99.99,,,-99.99,,2013-01-27 23:21:00,
2013-01-27 18:32:00,30.0,22.0,30.27,WNW,299,2.0,-999.0,73,-99.99,,,-99.99,,2013-01-27 23:32:00,
2013-01-27 18:41:00,30.0,22.0,30.27,WNW,299,2.0,-999.0,73,-99.99,,,-99.99,,2013-01-27 23:41:00,
2013-01-27 18:53:00,30.0,23.0,30.26,NW,310,2.0,-999.0,76,-99.99,,,-99.99,,2013-01-27 23:53:00,
2013-01-27 19:01:00,30.0,24.0,30.26,NNW,342,1.0,-999.0,77,-99.99,,,-99.99,,2013-01-28 00:01:00,
2013-01-27 19:11:00,30.0,24.0,30.26,NNW,342,1.0,-999.0,77,-99.99,,,-99.99,,2013-01-28 00:11:00,
2013-01-27 19:21:00,31.0,25.0,30.26,South,173,1.0,-999.0,79,-99.99,,,-99.99,,2013-01-28 00:21:00,
2013-01-27 19:32:00,30.0,25.0,30.26,NW,311,1.0,-999.0,81,-99.99,,,-99.99,,2013-01-28 00:32:00,
2013-01-27 19:42:00,30.0,25.0,30.26,NW,311,1.0,-999.0,81,-99.99,,,-99.99,,2013-01-28 00:42:00,
2013-01-27 19:52:00,30.0,25.0,30.20,NW,326,2.0,-999.0,83,-99.99,,,-99.99,,2013-01-28 00:52:00,
2013-01-27 20:01:00,30.0,25.0,30.20,North,356,4.0,-999.0,83,-99.99,,,-99.99,,2013-01-28 01:01:00,
2013-01-27 20:11:00,30.0,25.0,30.20,North,356,4.0,-999.0,83,-99.99,,,-99.99,,2013-01-28 01:11:00,
2013-01-27 20:22:00,31.0,27.0,30.17,WSW,248,3.0,-999.0,84,-99.99,,,-99.99,,2013-01-28 01:22:00,
2013-01-27 20:32:00,31.0,26.0,30.17,NNW,339,4.0,-999.0,83,-99.99,,,-99.99,,2013-01-28 01:32:00,
2013-01-27 20:42:00,31.0,26.0,30.17,NNW,339,4.0,-999.0,83,-99.99,,,-99.99,,2013-01-28 01:42:00,
2013-01-27 20:52:00,31.0,26.0,30.14,NNW,327,3.0,-999.0,83,-99.99,,,-99.99,,2013-01-28 01:52:00,
2013-01-27 21:02:00,32.0,27.0,30.14,WNW,296,3.0,-999.0,83,-99.99,,,-99.99,,2013-01-28 02:02:00,
2013-01-27 21:11:00,32.0,27.0,30.14,WNW,296,3.0,-999.0,83,-99.99,,,-99.99,,2013-01-28 02:11:00,
2013-01-27 21:22:00,32.0,27.0,30.14,NNW,339,3.0,-999.0,83,-99.99,,,-99.99,,2013-01-28 02:22:00,
2013-01-27 21:32:00,32.0,27.0,30.14,West,259,2.0,-999.0,83,-99.99,,,-99.99,,2013-01-28 02:32:00,
2013-01-27 21:42:00,32.0,27.0,30.14,West,259,2.0,-999.0,83,-99.99,,,-99.99,,2013-01-28 02:42:00,
2013-01-27 21:52:00,32.0,27.0,30.12,NW,315,3.0,-999.0,83,-99.99,,,-99.99,,2013-01-28 02:52:00,
2013-01-27 22:02:00,32.0,27.0,30.12,SW,223,3.0,-999.0,83,-99.99,,,-99.99,,2013-01-28 03:02:00,
2013-01-27 22:11:00,32.0,27.0,30.12,SW,223,3.0,-999.0,83,-99.99,,,-99.99,,2013-01-28 03:11:00,
2013-01-27 22:21:00,33.0,29.0,30.10,North,359,2.0,-999.0,84,-99.99,,,-99.99,,2013-01-28 03:21:00,
2013-01-27 22:32:00,33.0,29.0,30.10,WSW,238,2.0,-999.0,85,-99.99,,,-99.99,,2013-01-28 03:32:00,
2013-01-27 22:42:00,33.0,29.0,30.10,WSW,238,2.0,-999.0,85,-99.99,,,-99.99,,2013-01-28 03:42:00,
2013-01-27 22:53:00,33.0,29.0,30.08,WNW,290,2.0,-999.0,86,-99.99,,,-99.99,,2013-01-28 03:53:00,
2013-01-27 23:02:00,33.0,29.0,30.08,North,1,1.0,-999.0,86,-99.99,,,-99.99,,2013-01-28 04:02:00,
2013-01-27 23:11:00,33.0,29.0,30.08,North,1,1.0,-999.0,86,-99.99,,,-99.99,,2013-01-28 04:11:00,
2013-01-27 23:21:00,33.0,30.0,30.10,WSW,252,1.0,-999.0,87,-99.99,,,-99.99,,2013-01-28 04:21:00,
2013-01-27 23:32:00,33.0,30.0,30.09,North,1,1.0,-999.0,88,-99.99,,,-99.99,,2013-01-28 04:32:00,
2013-01-27 23:42:00,33.0,30.0,30.09,North,1,1.0,-999.0,88,-99.99,,,-99.99,,2013-01-28 04:42:00,
2013-01-27 23:52:00,34.0,31.0,30.08,West,281,1.0,-999.0,88,-99.99,,,-99.99,,2013-01-28 04:52:00,